Location: Clarion
(42.7316°N, 93.7330°W)
Time: 09:28:19
(UTC+00:00)

H-2A R/B - Pass Details

Date: 22 April 2026
Orbit: 549 x 612 km, 98.5° (Epoch: 17 May)

Event Time Altitude Azimuth Distance (km) Brightness Sun altitude
Rises 10:42:24 0° 5° (N) 2,767 5.8 -7.7°
Reaches altitude 10° 10:44:39 10° 358° (N) 1,857 4.8 -7.3°
Maximum altitude 10:48:22 38° 290° (WNW) 866 2.5 -6.7°
Drops below altitude 10° 10:52:00 10° 222° (SW) 1,824 3.9 -6.1°
Enters shadow 10:53:27 - 216° (SW) 2,400 4.6 -5.8°
